sat.trackr.live / text

‹ back to catalog

STARLINK-35854

NORAD 68214 · 2026-053H

PAYLOAD ACTIVE UNKNOWN

§ Identity

Operator
Country
US
Launch date
2026-03-17
Launch site
AFWTR
Launch vehicle
Mass (kg)
RCS (m²)

Purposes: comms

External: N2YO · Heavens-Above · Gunter

§ Orbital elements

Epoch: 2026-09-19T21:39:10.613952Z

Period
93.91 min
Inclination
97.2840°
Eccentricity
0.0000381
Mean motion
15.33445243 rev/d
Perigee alt
465.3 km
Apogee alt
465.8 km
Semi-major
6,843.7 km
B*
3.2322e-4
RAAN
136.7110°
Arg perigee
132.1231°
Mean anomaly
228.0044°
Rev number
2,996

§ Raw data

STARLINK-358541 68214U 26053H   26262.90220618  .00010374  00000+0  32322-3 0  99922 68214  97.2840 136.7110 0000381 132.1231 228.0044 15.33445243 29967

JSON: /api/v1/satellites/68214 · /tle

For live sub-satellite position, see the globe view (requires WebGL).

§ Visibility from observer

Set your observer location to see the next 7 days of passes ≥ 10°. The values pass through the URL so the page stays shareable.

No JS? Fill the form by hand. The geolocation button needs JavaScript.